TimePST,TemperatureF,Dew PointF,Humidity,Sea Level PressureIn,VisibilityMPH,Wind Direction,Wind SpeedMPH,Gust SpeedMPH,PrecipitationIn,Events,Conditions,WindDirDegrees,DateUTC
12:24 AM,46.9,45.0,93,29.97,10.0,South,4.6,-,N/A,,Overcast,190,2013-12-21 08:24:00
12:56 AM,46.9,45.0,93,29.98,10.0,SSW,3.5,-,N/A,,Overcast,210,2013-12-21 08:56:00
1:13 AM,46.9,45.0,93,29.97,10.0,Calm,Calm,-,N/A,,Overcast,0,2013-12-21 09:13:00
1:56 AM,46.9,45.0,93,29.98,10.0,SSW,11.5,-,N/A,,Overcast,200,2013-12-21 09:56:00
2:04 AM,46.9,45.0,93,29.98,10.0,WSW,4.6,-,N/A,,Overcast,250,2013-12-21 10:04:00
2:56 AM,48.0,46.0,93,30.01,8.0,Calm,Calm,-,N/A,,Overcast,0,2013-12-21 10:56:00
3:37 AM,46.9,46.0,97,30.00,10.0,South,6.9,-,0.00,,Overcast,180,2013-12-21 11:37:00
3:56 AM,46.9,46.0,97,30.01,10.0,South,6.9,-,0.00,,Overcast,180,2013-12-21 11:56:00
4:56 AM,46.0,44.1,93,30.03,10.0,SE,8.1,-,N/A,,Overcast,140,2013-12-21 12:56:00
5:41 AM,48.0,46.0,93,30.04,10.0,SSW,8.1,-,N/A,,Overcast,200,2013-12-21 13:41:00
5:56 AM,48.0,46.0,93,30.06,10.0,SSW,5.8,-,N/A,,Overcast,210,2013-12-21 13:56:00
6:09 AM,46.9,46.0,97,30.06,10.0,South,5.8,-,N/A,,Overcast,180,2013-12-21 14:09:00
6:56 AM,46.0,45.0,96,30.08,10.0,South,3.5,-,N/A,,Overcast,170,2013-12-21 14:56:00
7:56 AM,45.0,44.1,97,30.10,10.0,Calm,Calm,-,N/A,,Overcast,0,2013-12-21 15:56:00
8:56 AM,44.1,43.0,96,30.13,10.0,SSE,3.5,-,N/A,,Clear,160,2013-12-21 16:56:00
9:56 AM,48.9,46.9,93,30.15,10.0,SE,5.8,-,N/A,,Scattered Clouds,140,2013-12-21 17:56:00
10:56 AM,51.1,46.0,83,30.17,10.0,SW,9.2,-,N/A,,Overcast,220,2013-12-21 18:56:00
11:56 AM,52.0,46.0,80,30.16,10.0,South,6.9,-,N/A,,Partly Cloudy,190,2013-12-21 19:56:00
12:42 PM,55.0,45.0,69,30.16,10.0,SW,9.2,-,N/A,,Overcast,220,2013-12-21 20:42:00
12:56 PM,53.1,45.0,74,30.16,10.0,SSW,5.8,-,N/A,,Overcast,210,2013-12-21 20:56:00
1:56 PM,53.1,46.0,77,30.15,10.0,Calm,Calm,-,N/A,,Overcast,0,2013-12-21 21:56:00
2:03 PM,53.1,46.0,77,30.15,10.0,Calm,Calm,-,N/A,,Overcast,0,2013-12-21 22:03:00
2:25 PM,53.1,46.0,77,30.15,10.0,Calm,Calm,-,N/A,,Overcast,0,2013-12-21 22:25:00
2:56 PM,53.1,46.0,77,30.17,10.0,NNW,3.5,-,N/A,,Overcast,340,2013-12-21 22:56:00
3:05 PM,53.1,46.0,77,30.17,10.0,NNW,3.5,-,N/A,,Overcast,340,2013-12-21 23:05:00
3:32 PM,52.0,45.0,77,30.18,10.0,WSW,4.6,-,N/A,,Overcast,240,2013-12-21 23:32:00
3:56 PM,52.0,45.0,77,30.18,10.0,SSW,8.1,-,N/A,,Overcast,210,2013-12-21 23:56:00
4:56 PM,50.0,44.1,80,30.19,10.0,SW,5.8,-,N/A,,Overcast,230,2013-12-22 00:56:00
5:03 PM,50.0,44.1,80,30.19,10.0,SW,5.8,-,N/A,,Overcast,230,2013-12-22 01:03:00
5:56 PM,48.9,43.0,80,30.23,10.0,WNW,3.5,-,N/A,,Overcast,300,2013-12-22 01:56:00
6:56 PM,48.0,44.1,86,30.23,10.0,SSW,3.5,-,N/A,,Overcast,200,2013-12-22 02:56:00
7:56 PM,46.9,44.1,90,30.22,10.0,SSW,3.5,-,N/A,,Overcast,200,2013-12-22 03:56:00
8:56 PM,46.9,44.1,90,30.24,10.0,SSE,6.9,-,0.00,,Overcast,160,2013-12-22 04:56:00
9:56 PM,46.0,44.1,93,30.25,10.0,South,4.6,-,0.00,Rain,Light Rain,170,2013-12-22 05:56:00
10:56 PM,46.9,44.1,90,30.24,10.0,South,6.9,-,0.01,Rain,Light Rain,190,2013-12-22 06:56:00
11:56 PM,46.9,44.1,90,30.25,10.0,South,8.1,-,0.00,,Overcast,190,2013-12-22 07:56:00